Regional Weather Roundup
Issued by NWS Goodland, KS

Home | Current Version | Previous Version | Graphics & Text | Print | Product List | Glossary On
Versions: 1 2 3 4 5 6 7 8 9 10 11 12 13 14 15 16 17 18 19 20 21 22 23 24 25 26 27 28 29 30 31 32 33 34 35 36 37 38 39 40 41 42 43 44 45 46 47 48 49 50
000
ASUS43 KGLD 261359
RWRGLD

GOODLAND FORECAST AREA HOURLY WEATHER ROUNDUP
NATIONAL WEATHER SERVICE GOODLAND KS
800 AM MDT FRI MAY 26 2017

...OFFICIAL OBSERVATIONS...

CITY           SKY/WX    TMP DP  RH WIND       PRES   REMARKS
GOODLAND KS    SUNNY     56  51  84 N16       29.93R
HILL CITY KS   SUNNY     61  49  64 N18G24    29.88R
IMPERIAL NEB   PTSUNNY   53  44  71 N13       29.93S
MCCOOK NEB     PTSUNNY   57  45  64 N9        29.90R
AKRON CO       SUNNY     51  41  68 NE8       29.99R
BURLINGTON CO  MOSUNNY   56  50  80 N12       29.95R
LIMON CO       MOSUNNY   50  47  89 N10       30.01R
$$

...UNOFFICIAL OBSERVATIONS...

CITY           SKY/WX    TMP DP  RH WIND       PRES   REMARKS
NORTON KS      SUNNY     57  45  62 N13       29.86F
SHARON SPRINGS   N/A     63  52  67 NW12        N/A
YUMA CO        FAIR      50  41  71 N8        29.97S
$$



USA.gov is the U.S. government's official web portal to all federal, state and local government web resources and services.